Regional Weather Roundup
Issued by NWS Cleveland, OH

Home | Current Version | Previous Version | Graphics & Text | Print | Product List | Glossary On
Versions: 1 2 3 4 5 6 7 8 9 10 11 12 13 14 15 16 17 18 19 20 21 22 23 24 25 26 27 28 29 30 31 32 33 34 35 36 37 38 39 40 41 42 43 44 45 46 47 48 49 50
000
ASUS41 KCLE 172300
RWRCLE
OHIO REGIONAL WEATHER ROUNDUP
NATIONAL WEATHER SERVICE WILMINGTON, OH
700 PM EDT WED SEP 17 2014

NOTE: "FAIR" INDICATES FEW OR NO CLOUDS BELOW 12,000 FEET WITH NO
SIGNIFICANT WEATHER AND/OR OBSTRUCTIONS TO VISIBILITY.

OHZ001>008-015>018-024>027-034-035-043-044-180000-
   NORTHWEST OHIO

CITY           SKY/WX    TMP DP  RH WIND       PRES   REMARKS
DEFIANCE       CLEAR     66  46  48 CALM      29.98F
FINDLAY        PTCLDY    66  46  48 W5        29.98S
TOLEDO EXPRESS PTCLDY    66  44  45 W6        29.98S
TOLEDO METCALF CLEAR     65  45  48 W5        29.98S
LIMA           MOCLDY    64  52  64 CALM      29.99S
$$

OHZ009>014-019>023-028>033-038-089-180000-
   NORTHEAST OHIO

CITY           SKY/WX    TMP DP  RH WIND       PRES   REMARKS
CLE-HOPKINS    PTCLDY    62  49  62 N7        30.01R
CLE-LAKEFRONT  CLEAR     63  49  60 NW7       29.98S
CUY CO. ARPT   PTCLDY    61  50  67 NW9       30.00S
LORAIN-ELYRIA  CLEAR     64  51  62 N7        30.00R
ASHTABULA      CLEAR     61  49  64 NW5       30.00S
AKRON-CANTON   PTCLDY    65  46  50 CALM      29.98F
WOOSTER        NOT AVBL
MANSFIELD      CLEAR     64  45  49 SW3       29.99S
YOUNGSTOWN     PTCLDY    63  47  55 W6        29.99S
$$

OHZ042-051>053-060>062-070>072-077>081-180000-
  SOUTHWEST OHIO

CITY           SKY/WX    TMP DP  RH WIND       PRES   REMARKS
CINC-COVINGTON PTCLDY    65  50  58 W3        29.98F
CINC-LUNKEN    PTCLDY    66  49  54 N3        29.99F
HAMILTON       CLEAR     63  51  65 NW3       30.00F
DAYTON         NOT AVBL
WRIGHT-PAT AFB CLEAR     62  48  60 W2        29.99F
DAYTON GENERAL CLEAR     64  48  56 W5        29.99F
WILMINGTON     PTCLDY    63  47  55 NW8       30.00S
$$

OHZ036-037-039>041-045>050-054>059-063>069-073>076-082>088-180000-
  CENTRAL AND SOUTHEAST OHIO

CITY           SKY/WX    TMP DP  RH WIND       PRES   REMARKS
COLUMBUS       PTCLDY    68  46  45 NW5       29.97F
OSU AIRPORT    CLEAR     64  48  56 NW6       29.98S
BOLTON FIELD   CLEAR     64  48  55 CALM      29.99S
RICKENBACK AFB NOT AVBL
NEWARK         CLEAR     65  50  58 CALM      29.97F
MARION         CLEAR     65  45  48 W6        29.99S
LANCASTER      CLEAR     66  49  54 CALM      29.98F
ZANESVILLE     CLEAR     67  48  50 N3        29.97F
NEW PHILLY     CLEAR     65  49  56 NW5       29.98F
$$



USA.gov is the U.S. government's official web portal to all federal, state and local government web resources and services.